STARLINK-32083, 60343

Orbit data source: Space-Track

STARLINK-32083, 60343 is a payload satellite owned by SpaceX/Seattle (US) in LEO that was launched on Fri, 02 Aug 2024 UTC via an FALCON 9 launch vehicle from the Air Force Eastern Test Range (AFETR). Payload-class satellites include a variety of spacecraft equipped with specific instruments for various scientific and technological missions. These include communications satellites like Starlink; space stations such as the ISS; scientific satellites like the Hubble; Earth observation satellites from companies like Planet Labs, Umbra, and HawkEye 360; GPS; miniature CubeSats for education and research; and military/defense satellites.

Loading next visibility...
Identifier
60343, 2024-136Q
Orbit
LEO
Last TLE update
1 day ago
Origin
Manufacturer
SpaceX/Seattle
Mission
Operational Commercial Communications
Bus & Motor
STARLINK V2M, Unknown motor
Mass
730 kg wet, ~700 kg dry
Launch date (UTC)
2024-08-02 (9 months ago)
Launch vehicle
FALCON 9
Launch site
Air Force Eastern Test Range (AFETR)
Object type
Payload
Rocket body
Debris
Shape & HBR
Box + 2 Pan, 29 m
Radar Cross Section
33.884 m², Large (>1 m²)

Expand to show TLE details & history

TLE from 1 day ago
0 STARLINK-32083
1 60343U 24136Q   25128.20297511  .00002813  00000-0  10712-3 0  9995
2 60343  53.1608  54.5522 0001323  81.2429 278.8722 15.30181656 43840
Epoch: 2025-05-08T04:52Z
Definitive object data (Epoch: 2025-05-08T04:52:17.049Z)
Latitude
0.00001°
Longitude
115.20433°
Altitude
476.03 km
Speed
7.629 km/s
True Right ascension
03h 38m 12s
True Declination
0° 00' 00"
Sunlit
Object was in daylight at TLE epoch
Visualization TLE readout
Latitude
-10.96758°
Longitude
-61.5127°
Altitude
478.512 km
Speed
7.627 km/s
Apparent Right ascension
17h 53m 07s
Apparent Declination
-66° 54' 38"
Sunlit
Object is in full shadow
Visualization observer readout
Local Sidereal Time
14:56:34
Azimuth
162.871° S
Elevation
-21.987°
Doppler factor
1
Orbital elements
Apogee altitude
476.433 km
Perigee altitude
474.619 km
Semi-major axis
6,853.663 km
Eccentricity
0.0001323
Inclination
53.1608°
RAAN
54.5522°
Arg. of periapsis
81.2429°
True anomaly
278.85722°
Mean anomaly
278.8722°
Eccentric anomaly
278.86471°
Mean motion
3.82524 °/min
BSTAR
0.00010712
Orbital period
94.11 mins
Loading maneuver chart data...
Loading SW <> Apogee altitude chart data...
Loading historical data...
Loading historical data...
Loading historical data...
Loading historical data...
Loading historical data...
Loading historical data...
Loading historical data...

STARLINK-32083 Visibility forecast

Observer location: undefined°, undefined°

Span
Click to sort rows by Start time (UTC) header in descending order
Start Az.
Max El. time (UTC)
Max El. Az.
Max El.
End time (UTC)
End Az.
4 mins2025-05-09 20:12:40.884Z165.903° S2025-05-09 20:14:40.884Z131.45° SE15.857°2025-05-09 20:16:40.884Z94.433° ESE
5 mins2025-05-09 21:50:40.884Z254.806° W2025-05-09 21:52:40.884Z342.289° N39.28°2025-05-09 21:55:40.884Z41.778° NE
4 mins2025-05-10 02:47:40.884Z350.367° N2025-05-10 02:49:40.884Z34.905° NE19.541°2025-05-10 02:51:40.884Z71.358° E
5 mins2025-05-10 04:25:40.884Z298.575° NW2025-05-10 04:27:40.884Z197.89° SSW42.262°2025-05-10 04:30:40.884Z141° SSE
|